Tracking 21970 objects as of 25-Nov-2020
HD Live streaming from Space Station
objects crossing your sky now

IRIDIUM 33 DEB

Track IRIDIUM 33 DEB now!
10-day predictions


NORAD ID: 36486
Int'l Code: 1997-051WC
Perigee: 669.5 km
Apogee: 702.5 km
Inclination: 86.4 °
Period: 98.3 minutes
Semi major axis: 7056 km
RCS: 0.0127 m2 (small)
Launch date: September 14, 1997
Source: United States (US)
Launch site: TYURATAM MISSILE AND SPACE COMPLEX (TTMTR)

Note: This is SATELLITE DEBRIS
aabbcc
Your satellite tracking list
Your tracking list is empty




NASA's NSSDC Master Catalog

Two Line Element Set (TLE):
1 36486U 97051WC  20328.98112794  .00004155  00000-0  77802-3 0  9997
2 36486  86.3530  54.4339 0023375 177.9066 182.2249 14.64445692616992
Source of the keplerian elements: AFSPC